sat.trackr.live / text

‹ back to catalog

STARLINK-32872

NORAD 63019 · 2025-032Q

PAYLOAD ACTIVE UNKNOWN

§ Identity

Operator
Country
US
Launch date
2025-02-15
Launch site
AFETR
Launch vehicle
Mass (kg)
RCS (m²)

Purposes: comms

External: N2YO · Heavens-Above · Gunter

§ Orbital elements

Epoch: 2026-05-25T01:07:23.533824Z

Period
94.27 min
Inclination
43.0010°
Eccentricity
0.0001771
Mean motion
15.27567428 rev/d
Perigee alt
481.9 km
Apogee alt
484.3 km
Semi-major
6,861.2 km
B*
4.7583e-4
RAAN
265.1933°
Arg perigee
278.0964°
Mean anomaly
81.9686°
Rev number
7,229

§ Raw data

STARLINK-328721 63019U 25032Q   26145.04680016  .00012850  00000+0  47583-3 0  99992 63019  43.0010 265.1933 0001771 278.0964  81.9686 15.27567428 72295

JSON: /api/v1/satellites/63019 · /tle

For live sub-satellite position, see the globe view (requires WebGL).

§ Visibility from observer

Set your observer location to see the next 7 days of passes ≥ 10°. The values pass through the URL so the page stays shareable.

No JS? Fill the form by hand. The geolocation button needs JavaScript.